Change the Weather History Date:

Saturday, May 19, 2012

  Actual Average Record
Temperature  
Mean Temperature 66 °F 64 °F  
Max Temperature 83 °F 75 °F 98 °F (1962)
Min Temperature 49 °F 53 °F 38 °F (2009)
Degree Days  
Heating Degree Days 0 4  
Month to date heating degree days 27 102  
Since 1 July heating degree days 3586 4717  
Cooling Degree Days 1 2  
Month to date cooling degree days 45 28  
Year to date cooling degree days 77 42  
Growing Degree Days 15 (Base 50)    
Moisture  
Dew Point 47 °F    
Average Humidity 58    
Maximum Humidity 86    
Minimum Humidity 30    
Precipitation  
Precipitation 0.00 in 0.12 in 1.53 in (1892)
Month to date precipitation 1.03 2.36  
Year to date precipitation 9.74 15.40  
Snow  
Snow 0.00 in 0.00 in - ()
Month to date snowfall 0.0 0.0  
Since 1 July snowfall 1.8 20.1  
Snow Depth 0.00 in    
Sea Level Pressure  
Sea Level Pressure 30.13 in    
Wind  
Wind Speed 3 mph (ENE)    
Max Wind Speed 12 mph    
Max Gust Speed 20 mph    
Visibility 10 miles    
Events      
T = Trace of Precipitation, MM = Missing Value Source: NWS Daily Summary

Daily Weather History Graph

Daily Weather History Graph

Search for Another Location

Airport or City:

Trip Planner

Search our weather history database for the weather conditions in past years. The results will help you decide how hot, cold, wet, or windy it might be!

Date:

Astronomy

May. 19, 2012 Rise Set
Actual Time 5:49 AM EDT 8:17 PM EDT
Civil Twilight 5:19 AM EDT 8:47 PM EDT
Nautical Twilight 4:41 AM EDT 9:25 PM EDT
Astronomical Twilight 3:59 AM EDT 10:07 PM EDT
Moon 4:50 AM EDT (5/19) 7:19 PM EDT (5/19)
Length of Visible Light 15h 28m
Length of Day
14h 27m
Waning Crescent, 2% of the Moon is Illuminated
May 19
Waning Crescent
May 20
New
May 28
First Quarter
Jun 4
Full
Jun 11
Last Quarter

Hourly Weather History & Observations

Time (EDT) Temp. Dew Point Humidity Pressure Visibility Wind Dir Wind Speed Gust Speed Precip Events Conditions
12:54 AM 57.9 °F 43.0 °F 58% 30.17 in 10.0 mi Calm Calm - N/A   Scattered Clouds
1:54 AM 54.0 °F 45.0 °F 72% 30.16 in 10.0 mi Calm Calm - N/A   Scattered Clouds
2:54 AM 52.0 °F 45.0 °F 77% 30.14 in 10.0 mi Calm Calm - N/A   Partly Cloudy
3:54 AM 52.0 °F 46.0 °F 80% 30.14 in 10.0 mi Calm Calm - N/A   Partly Cloudy
4:54 AM 50.0 °F 45.0 °F 83% 30.14 in 10.0 mi Calm Calm - N/A   Partly Cloudy
5:54 AM 48.9 °F 45.0 °F 86% 30.15 in 10.0 mi Calm Calm - N/A   Mostly Cloudy
6:54 AM 55.0 °F 45.0 °F 69% 30.17 in 10.0 mi Calm Calm - N/A   Mostly Cloudy
7:54 AM 60.1 °F 48.0 °F 64% 30.17 in 10.0 mi Calm Calm - N/A   Mostly Cloudy
8:54 AM 64.9 °F 41.0 °F 42% 30.18 in 10.0 mi NNE 5.8 mph - N/A   Mostly Cloudy
9:54 AM 68.0 °F 41.0 °F 37% 30.18 in 10.0 mi Variable 3.5 mph - N/A   Scattered Clouds
10:54 AM 73.0 °F 43.0 °F 34% 30.16 in 10.0 mi NW 5.8 mph - N/A   Scattered Clouds
11:54 AM 75.9 °F 46.0 °F 35% 30.15 in 10.0 mi Variable 3.5 mph - N/A   Scattered Clouds
12:54 PM 78.1 °F 46.0 °F 32% 30.14 in 10.0 mi Variable 5.8 mph - N/A   Scattered Clouds
1:54 PM 79.0 °F 46.0 °F 31% 30.12 in 10.0 mi East 4.6 mph - N/A   Scattered Clouds
2:54 PM 81.0 °F 46.0 °F 29% 30.11 in 10.0 mi Variable 4.6 mph - N/A   Scattered Clouds
3:54 PM 82.0 °F 48.0 °F 30% 30.10 in 10.0 mi ENE 9.2 mph - N/A   Scattered Clouds
4:54 PM 81.0 °F 46.0 °F 29% 30.10 in 10.0 mi Variable 4.6 mph - N/A   Scattered Clouds
5:54 PM 80.1 °F 48.0 °F 32% 30.09 in 10.0 mi East 5.8 mph - N/A   Scattered Clouds
6:54 PM 78.1 °F 48.9 °F 36% 30.09 in 10.0 mi East 8.1 mph - N/A   Mostly Cloudy
7:54 PM 73.9 °F 48.0 °F 40% 30.10 in 10.0 mi Calm Calm - N/A   Mostly Cloudy
8:54 PM 69.1 °F 51.1 °F 53% 30.10 in 10.0 mi Calm Calm - N/A   Mostly Cloudy
9:54 PM 66.0 °F 51.1 °F 59% 30.12 in 10.0 mi Calm Calm - N/A   Scattered Clouds
10:54 PM 64.0 °F 51.1 °F 63% 30.13 in 10.0 mi Calm Calm - N/A   Partly Cloudy
11:54 PM 63.0 °F 53.1 °F 70% 30.14 in 10.0 mi Calm Calm - N/A   Partly Cloudy